Location: 相模原市立博物館
(35.5593°N, 139.3931°E)
Time: 04:59:55
(UTC+09:00)

X-37B - Pass Details

Date: 25 October 2021
Orbit: 330 x 341 km, 45.0° (Epoch: 20 November)

Event Time Altitude Azimuth Distance (km) Brightness Sun altitude
Rises 17:52:10 0° 307° (NW) 2,125 5.1 -12.2°
Reaches altitude 10° 17:54:22 10° 321° (NW) 1,284 3.7 -12.7°
Maximum altitude 17:56:51 26° 21° (NNE) 717 1.7 -13.2°
Enters shadow 17:57:35 23° 47° (NE) 779 1.7 -13.3°
